sat.trackr.live / text

‹ back to catalog

STARLINK-31338

NORAD 59156 · 2024-044E

PAYLOAD ACTIVE UNKNOWN

§ Identity

Operator
Country
US
Launch date
2024-03-04
Launch site
AFETR
Launch vehicle
Mass (kg)
RCS (m²)

Purposes: comms

External: N2YO · Heavens-Above · Gunter

§ Orbital elements

Epoch: 2026-09-19T16:40:30.710496Z

Period
94.27 min
Inclination
43.0004°
Eccentricity
0.0001291
Mean motion
15.27580757 rev/d
Perigee alt
482.2 km
Apogee alt
483.9 km
Semi-major
6,861.2 km
B*
3.3006e-5
RAAN
95.0485°
Arg perigee
270.9908°
Mean anomaly
89.0796°
Rev number
14,319

§ Raw data

STARLINK-313381 59156U 24044E   26262.69479989  .00000646  00000+0  33006-4 0  99902 59156  43.0004  95.0485 0001291 270.9908  89.0796 15.27580757143192

JSON: /api/v1/satellites/59156 · /tle

For live sub-satellite position, see the globe view (requires WebGL).

§ Visibility from observer

Set your observer location to see the next 7 days of passes ≥ 10°. The values pass through the URL so the page stays shareable.

No JS? Fill the form by hand. The geolocation button needs JavaScript.